FHA19D EDDM-LIPQ

Flight info

Callsign FHA19D
Flight time 0h 34m
Altitude 23000
Route ROTAX4E/08R ROTAX L603 LATLO DCT TIBRO DCT LUPIN LUPIN1D
Aircraft A320/M-SDE3FGHIRWY/LB1

Departure

Time 2026-04-18 09:48
Airport Munich Airport (EDDM)

Arrival

Time 2026-04-18 10:22
Airport Trieste Airport (LIPQ)
Time Latitude Longitude Altitude Speed Heading
2026-04-18 09:21 48.35095 11.79187 1478 ft 0 kts 83°
2026-04-18 09:35 48.35094 11.79168 1471 ft 4 kts 93°
2026-04-18 09:35 48.35101 11.79131 1477 ft 4 kts 129°
2026-04-18 09:35 48.35107 11.79121 1478 ft 0 kts 135°
2026-04-18 09:37 48.35105 11.79121 1478 ft 1 kts 150°
2026-04-18 09:38 48.35083 11.79118 1480 ft 7 kts 174°
2026-04-18 09:38 48.35007 11.79131 1485 ft 13 kts 173°
2026-04-18 09:38 48.34947 11.79179 1478 ft 10 kts 99°
2026-04-18 09:38 48.34946 11.79272 1485 ft 8 kts 90°
2026-04-18 09:39 48.34951 11.79352 1485 ft 8 kts 83°
2026-04-18 09:39 48.34959 11.79447 1483 ft 10 kts 83°
2026-04-18 09:39 48.34954 11.79535 1478 ft 7 kts 135°
2026-04-18 09:39 48.34917 11.79547 1473 ft 4 kts 175°
2026-04-18 09:40 48.34895 11.79551 1480 ft 3 kts 173°
2026-04-18 09:40 48.34879 11.79554 1479 ft 4 kts 173°
2026-04-18 09:40 48.34822 11.79562 1482 ft 11 kts 180°
2026-04-18 09:40 48.34785 11.79478 1480 ft 12 kts 264°
2026-04-18 09:41 48.34773 11.79326 1481 ft 17 kts 263°
2026-04-18 09:41 48.34758 11.79122 1485 ft 22 kts 263°
2026-04-18 09:41 48.34738 11.78871 1472 ft 26 kts 263°
2026-04-18 09:41 48.34717 11.78592 1483 ft 27 kts 263°
2026-04-18 09:42 48.34695 11.78304 1475 ft 28 kts 263°
2026-04-18 09:42 48.34672 11.78011 1485 ft 29 kts 263°
2026-04-18 09:42 48.34649 11.77708 1485 ft 30 kts 263°
2026-04-18 09:42 48.34626 11.77399 1482 ft 30 kts 263°
2026-04-18 09:43 48.34600 11.77084 1485 ft 31 kts 263°
2026-04-18 09:43 48.34576 11.76764 1483 ft 31 kts 263°
2026-04-18 09:43 48.34560 11.76550 1485 ft 31 kts 263°
2026-04-18 09:43 48.34535 11.76225 1478 ft 32 kts 263°
2026-04-18 09:44 48.34511 11.75922 1476 ft 21 kts 263°
2026-04-18 09:44 48.34497 11.75787 1485 ft 8 kts 242°
2026-04-18 09:44 48.34449 11.75780 1482 ft 7 kts 173°
2026-04-18 09:44 48.34389 11.75805 1476 ft 11 kts 148°
2026-04-18 09:45 48.34352 11.75883 1483 ft 9 kts 115°
2026-04-18 09:45 48.34324 11.75976 1482 ft 11 kts 112°
2026-04-18 09:45 48.34288 11.76106 1477 ft 15 kts 113°
2026-04-18 09:45 48.34262 11.76197 1472 ft 4 kts 113°
2026-04-18 09:46 48.34254 11.76223 1482 ft 4 kts 113°
2026-04-18 09:46 48.34226 11.76320 1481 ft 13 kts 113°
2026-04-18 09:46 48.34185 11.76378 1482 ft 7 kts 171°
2026-04-18 09:46 48.34169 11.76419 1485 ft 2 kts 83°
2026-04-18 09:47 48.34169 11.76421 1485 ft 0 kts 82°
2026-04-18 09:47 48.34183 11.76597 1485 ft 50 kts 84°
2026-04-18 09:48 48.34251 11.77473 1477 ft 116 kts 83°
2026-04-18 09:48 48.34363 11.78948 1496 ft 165 kts 84°
2026-04-18 09:48 48.34495 11.80691 2123 ft 168 kts 84°
2026-04-18 09:48 48.34621 11.82427 2908 ft 166 kts 83°
2026-04-18 09:49 48.34750 11.84171 3509 ft 174 kts 84°
2026-04-18 09:49 48.34896 11.86091 3824 ft 195 kts 84°
2026-04-18 09:49 48.35059 11.88234 4117 ft 217 kts 84°
2026-04-18 09:49 48.35240 11.90585 4508 ft 237 kts 83°
2026-04-18 09:50 48.35316 11.93092 5234 ft 244 kts 98°
2026-04-18 09:50 48.34782 11.95595 5769 ft 262 kts 113°
2026-04-18 09:50 48.34035 11.98148 6554 ft 269 kts 114°
2026-04-18 09:50 48.33261 12.00730 7403 ft 273 kts 114°
2026-04-18 09:51 48.32473 12.03357 8215 ft 278 kts 114°
2026-04-18 09:51 48.31677 12.06026 9036 ft 282 kts 114°
2026-04-18 09:51 48.30701 12.08608 9832 ft 287 kts 128°
2026-04-18 09:51 48.29322 12.10751 10495 ft 296 kts 141°
2026-04-18 09:52 48.27497 12.12405 10736 ft 318 kts 157°
2026-04-18 09:52 48.25391 12.13782 10951 ft 342 kts 157°
2026-04-18 09:52 48.23157 12.15235 11361 ft 356 kts 157°
2026-04-18 09:52 48.20857 12.16741 12012 ft 361 kts 156°
2026-04-18 09:53 48.18542 12.18269 12690 ft 366 kts 156°
2026-04-18 09:53 48.16212 12.19810 13351 ft 371 kts 156°
2026-04-18 09:53 48.13845 12.21435 14003 ft 377 kts 152°
2026-04-18 09:53 48.11632 12.23579 14577 ft 382 kts 144°
2026-04-18 09:54 48.09459 12.25912 15174 ft 386 kts 144°
2026-04-18 09:54 48.07261 12.28266 15774 ft 390 kts 144°
2026-04-18 09:54 48.05044 12.30636 16360 ft 394 kts 144°
2026-04-18 09:54 48.02798 12.33031 16944 ft 398 kts 145°
2026-04-18 09:55 48.00533 12.35437 17520 ft 402 kts 145°
2026-04-18 09:55 47.98271 12.37852 18064 ft 405 kts 143°
2026-04-18 09:55 47.96133 12.40635 18582 ft 410 kts 137°
2026-04-18 09:55 47.94049 12.43559 19056 ft 413 kts 137°
2026-04-18 09:56 47.91942 12.46512 19536 ft 416 kts 137°
2026-04-18 09:56 47.89822 12.49480 20017 ft 419 kts 137°
2026-04-18 09:56 47.87680 12.52467 20486 ft 423 kts 137°
2026-04-18 09:56 47.85521 12.55465 20962 ft 426 kts 137°
2026-04-18 09:57 47.83346 12.58478 21424 ft 429 kts 137°
2026-04-18 09:57 47.81158 12.61524 21875 ft 432 kts 136°
2026-04-18 09:57 47.79029 12.64608 22326 ft 435 kts 135°
2026-04-18 09:57 47.76891 12.67813 22774 ft 438 kts 135°
2026-04-18 09:58 47.74753 12.71071 23129 ft 441 kts 134°
2026-04-18 09:58 47.72595 12.74359 23193 ft 450 kts 134°
2026-04-18 09:58 47.70308 12.77583 23195 ft 455 kts 141°
2026-04-18 09:58 47.67705 12.80265 23194 ft 455 kts 151°
2026-04-18 09:59 47.64844 12.82284 23196 ft 454 kts 160°
2026-04-18 09:59 47.61840 12.83725 23196 ft 454 kts 164°
2026-04-18 09:59 47.58814 12.85116 23198 ft 455 kts 164°
2026-04-18 10:00 47.52780 12.87923 23195 ft 455 kts 163°
2026-04-18 10:00 47.49802 12.89315 23197 ft 455 kts 163°
2026-04-18 10:00 47.46786 12.90723 23191 ft 455 kts 163°
2026-04-18 10:00 47.43758 12.92129 23195 ft 455 kts 164°
2026-04-18 10:01 47.40738 12.93527 23195 ft 454 kts 163°
2026-04-18 10:01 47.37721 12.94924 23197 ft 455 kts 163°
2026-04-18 10:01 47.34699 12.96324 23199 ft 455 kts 163°
2026-04-18 10:01 47.31681 12.97719 23204 ft 454 kts 163°
2026-04-18 10:02 47.28662 12.99109 23197 ft 455 kts 163°
2026-04-18 10:02 47.25637 13.00495 23181 ft 455 kts 163°
2026-04-18 10:02 47.22610 13.01882 23184 ft 455 kts 163°
2026-04-18 10:02 47.19583 13.03270 23186 ft 456 kts 163°
2026-04-18 10:03 47.16592 13.04642 23190 ft 455 kts 163°
2026-04-18 10:03 47.13564 13.06028 23189 ft 456 kts 163°
2026-04-18 10:03 47.10528 13.07414 23191 ft 456 kts 163°
2026-04-18 10:03 47.07498 13.08798 23198 ft 456 kts 164°
2026-04-18 10:04 47.04461 13.10183 23179 ft 456 kts 163°
2026-04-18 10:04 47.01455 13.11553 22821 ft 448 kts 163°
2026-04-18 10:04 46.98488 13.12907 22408 ft 445 kts 163°
2026-04-18 10:04 46.95544 13.14251 22008 ft 441 kts 163°
2026-04-18 10:05 46.92618 13.15588 21616 ft 439 kts 163°
2026-04-18 10:05 46.89743 13.16894 21226 ft 436 kts 163°
2026-04-18 10:05 46.86845 13.18206 20860 ft 434 kts 163°
2026-04-18 10:05 46.83966 13.19507 20488 ft 433 kts 163°
2026-04-18 10:06 46.81096 13.20803 20117 ft 431 kts 163°
2026-04-18 10:06 46.78237 13.22092 19734 ft 429 kts 163°
2026-04-18 10:06 46.75396 13.23373 19376 ft 426 kts 163°
2026-04-18 10:06 46.72569 13.24644 19020 ft 424 kts 163°
2026-04-18 10:07 46.69749 13.25908 18667 ft 422 kts 163°
2026-04-18 10:07 46.66951 13.27164 18293 ft 420 kts 163°
2026-04-18 10:07 46.64165 13.28420 17897 ft 417 kts 163°
2026-04-18 10:07 46.61399 13.29668 17490 ft 415 kts 163°
2026-04-18 10:08 46.58647 13.30903 17086 ft 413 kts 163°
2026-04-18 10:08 46.55905 13.32127 16694 ft 411 kts 163°
2026-04-18 10:08 46.53183 13.33342 16314 ft 408 kts 163°
2026-04-18 10:08 46.50476 13.34554 15931 ft 406 kts 163°
2026-04-18 10:09 46.47784 13.35755 15563 ft 404 kts 163°
2026-04-18 10:09 46.45101 13.36952 15185 ft 401 kts 163°
2026-04-18 10:09 46.42460 13.38062 14840 ft 399 kts 168°
2026-04-18 10:09 46.39679 13.38241 14430 ft 394 kts 188°
2026-04-18 10:10 46.37033 13.37448 14032 ft 391 kts 194°
2026-04-18 10:10 46.34401 13.36522 13585 ft 386 kts 194°
2026-04-18 10:10 46.31812 13.35605 13169 ft 381 kts 194°
2026-04-18 10:10 46.29251 13.34693 12797 ft 375 kts 194°
2026-04-18 10:11 46.26761 13.33800 12433 ft 360 kts 195°
2026-04-18 10:11 46.24387 13.32943 12050 ft 344 kts 194°
2026-04-18 10:11 46.22105 13.32129 11675 ft 331 kts 194°
2026-04-18 10:11 46.19906 13.31343 11302 ft 319 kts 194°
2026-04-18 10:12 46.17811 13.30598 10931 ft 309 kts 194°
2026-04-18 10:12 46.15751 13.29869 10570 ft 300 kts 194°
2026-04-18 10:12 46.13746 13.29160 10202 ft 293 kts 194°
2026-04-18 10:12 46.11772 13.28459 9874 ft 291 kts 194°
2026-04-18 10:13 46.09820 13.27766 9584 ft 287 kts 194°
2026-04-18 10:13 46.07896 13.27083 9395 ft 279 kts 194°
2026-04-18 10:13 46.06063 13.26433 9264 ft 270 kts 194°
2026-04-18 10:13 46.04262 13.25799 9075 ft 262 kts 194°
2026-04-18 10:14 46.02497 13.25178 8785 ft 260 kts 194°
2026-04-18 10:14 46.00743 13.24563 8485 ft 258 kts 194°
2026-04-18 10:14 45.99005 13.23953 8172 ft 257 kts 194°
2026-04-18 10:14 45.97274 13.23347 7864 ft 255 kts 194°
2026-04-18 10:15 45.95636 13.22543 7546 ft 251 kts 214°
2026-04-18 10:15 45.94452 13.20782 7244 ft 244 kts 245°
2026-04-18 10:15 45.94030 13.18476 6875 ft 239 kts 267°
2026-04-18 10:15 45.93944 13.16088 6473 ft 239 kts 270°
2026-04-18 10:16 45.93905 13.13712 6071 ft 237 kts 269°
2026-04-18 10:16 45.93529 13.11437 5733 ft 235 kts 243°
2026-04-18 10:16 45.92492 13.09648 5457 ft 235 kts 216°
2026-04-18 10:16 45.91018 13.08747 5185 ft 236 kts 190°
2026-04-18 10:17 45.89389 13.08922 4932 ft 238 kts 162°
2026-04-18 10:17 45.87993 13.10170 4717 ft 239 kts 134°
2026-04-18 10:17 45.86998 13.12100 4512 ft 241 kts 124°
2026-04-18 10:17 45.86041 13.14087 4284 ft 241 kts 124°
2026-04-18 10:18 45.85100 13.16042 4030 ft 240 kts 124°
2026-04-18 10:18 45.84152 13.18003 3785 ft 238 kts 124°
2026-04-18 10:18 45.83258 13.19993 3534 ft 237 kts 114°
2026-04-18 10:18 45.82877 13.22291 3136 ft 238 kts 91°
2026-04-18 10:19 45.82869 13.24648 2803 ft 234 kts 90°
2026-04-18 10:19 45.82866 13.26947 2500 ft 227 kts 90°
2026-04-18 10:19 45.82859 13.29168 2197 ft 222 kts 90°
2026-04-18 10:19 45.82852 13.31341 1912 ft 215 kts 90°
2026-04-18 10:20 45.82844 13.33455 1631 ft 211 kts 91°
2026-04-18 10:20 45.82836 13.35521 1370 ft 202 kts 91°
2026-04-18 10:20 45.82828 13.37472 1103 ft 188 kts 91°
2026-04-18 10:20 45.82821 13.39272 882 ft 170 kts 91°
2026-04-18 10:21 45.82816 13.40889 631 ft 155 kts 91°
2026-04-18 10:21 45.82802 13.42394 411 ft 147 kts 90°
2026-04-18 10:21 45.82800 13.43854 221 ft 145 kts 90°
2026-04-18 10:21 45.82793 13.45293 63 ft 140 kts 89°
2026-04-18 10:22 45.82788 13.46534 44 ft 103 kts 90°
2026-04-18 10:22 45.82783 13.47312 49 ft 51 kts 90°
2026-04-18 10:22 45.82779 13.47604 48 ft 14 kts 101°
2026-04-18 10:22 45.82722 13.47699 48 ft 12 kts 139°
2026-04-18 10:23 45.82663 13.47773 47 ft 11 kts 139°
2026-04-18 10:23 45.82607 13.47838 47 ft 10 kts 141°
2026-04-18 10:23 45.82537 13.47919 47 ft 16 kts 140°
2026-04-18 10:23 45.82438 13.48037 47 ft 21 kts 140°
2026-04-18 10:24 45.82334 13.48165 47 ft 12 kts 139°
2026-04-18 10:24 45.82280 13.48233 47 ft 9 kts 139°
2026-04-18 10:24 45.82257 13.48305 47 ft 8 kts 84°
2026-04-18 10:24 45.82266 13.48375 46 ft 7 kts 79°
2026-04-18 10:25 45.82273 13.48434 47 ft 5 kts 80°
2026-04-18 10:25 45.82251 13.48471 46 ft 6 kts 166°
2026-04-18 10:25 45.82215 13.48477 45 ft 4 kts 172°
2026-04-18 10:25 45.82197 13.48481 47 ft 0 kts 172°